This is the latest recevied weather packets stored in our database for station/object HS5AU-13. If no packets are shown the sender has not sent any weather packets the latest 10 day(s).
| Time | Temp. | Humidity | Pressure | Rain* | Wind** | Luminosity | Snow |
|---|---|---|---|---|---|---|---|
| 1788183902 | 21.67° C | 99% | 1003.3 hPa | 0 mm | - | 2 W/m² | - |
| 1788183302 | 22.22° C | 99% | 1003 hPa | 0 mm | - | 2 W/m² | - |
| 1788182702 | 22.22° C | 99% | 1002.7 hPa | 0 mm | - | 2 W/m² | - |
| 1788182102 | 22.22° C | 99% | 1002.7 hPa | 0 mm | - | 2 W/m² | - |
| 1788181502 | 22.22° C | 99% | 1002.5 hPa | 0 mm | - | 2 W/m² | - |
| 1788180902 | 22.22° C | 99% | 1002.5 hPa | 0 mm | - | 2 W/m² | - |
| 1788180302 | 22.22° C | 99% | 1002.4 hPa | 0 mm | - | 2 W/m² | - |
| 1788179702 | 22.22° C | 99% | 1002.2 hPa | 0 mm | - | 2 W/m² | - |
| 1788179102 | 22.78° C | 99% | 1001.9 hPa | 0 mm | - | 2 W/m² | - |
| 1788178502 | 22.78° C | 99% | 1001.5 hPa | 0 mm | - | 2 W/m² | - |
| 1788177902 | 23.33° C | 99% | 1000.6 hPa | 0 mm | - | 2 W/m² | - |
| 1788177302 | 22.78° C | 99% | 1000.8 hPa | 0 mm | - | 2 W/m² | - |
| 1788176702 | 23.33° C | 99% | 1001 hPa | 0 mm | - | 2 W/m² | - |
| 1788176102 | 23.33° C | 99% | 1001 hPa | 0 mm | - | 2 W/m² | - |
| 1788175502 | 23.33° C | 99% | 1000.9 hPa | 0 mm | - | 6 W/m² | - |
| 1788174902 | 23.33° C | 99% | 1000.5 hPa | 0 mm | - | 11 W/m² | - |
| 1788174302 | 23.33° C | 99% | 999.8 hPa | 0 mm | - | 17 W/m² | - |
| 1788173702 | 23.89° C | 99% | 999.5 hPa | 0 mm | - | 40 W/m² | - |
| 1788173102 | 23.89° C | 99% | 999.3 hPa | 0 mm | - | 53 W/m² | - |
| 1788172502 | 24.44° C | 98% | 999.1 hPa | 0 mm | - | 66 W/m² | - |
| 1788171902 | 24.44° C | 97% | 999 hPa | 0 mm | - | 52 W/m² | - |
| 1788171302 | 25° C | 97% | 999.2 hPa | 0 mm | - | 80 W/m² | - |
| 1788170702 | 25° C | 96% | 999.3 hPa | 0 mm | - | 97 W/m² | - |
| 1788170102 | 25.56° C | 95% | 999.2 hPa | 0 mm | - | 71 W/m² | - |
| 1788169502 | 25.56° C | 93% | 999.2 hPa | 0 mm | - | 128 W/m² | - |
* Rain latest hour (hover to see other rain measurements)
** Current wind speed in m/s (hover to see current wind gust speed)